Погода в Кашарах

Россия / Ростовская область     49°02′15″N   41°00′26″E
темп.,
°C
ветер,
м/с
пор.,
м/с
влажн.,
%
обл.,
%
осадки,
мм/ч
давл.,
гПа
погр.,
м
20 апреля, вт
вт2000:00+10всв3580100 0.0 1013146
03:00+10всв358693 0.0 1013190
06:00+10всв5893100 0.0 1011307
09:00+11в5990100 0.6 1010629
12:00+13юв81286100 1.8 1007873
15:00+12юв2794100 5.9 1006587
18:00+14ю8138845 3.7 1003829
21:00+12ююз6138518 3.8 1005712
21 апреля, ср
ср2100:00+11ююз81482100 0.4 10061080
03:00+9ю91586100 0.4 1007960
06:00+10юз9148145 0.1 1009832
09:00+11юз7107659 0.3 1013998
12:00+15юз8104687 0.1 10142288
15:00+15зюз6945100 0.1 10142255
18:00+15з3651100 0.0 1016374
21:00+10ююз236611 0.1 101832
22 апреля, чт
чт2200:00+9ююз38845 0.1 1019159
03:00+7ююз37875 0.1 1020155
06:00+7ююз34865 0.0 1021102
09:00+13зюз35653 0.0 1022679
12:00+17зюз454819 0.1 10221826
15:00+17юз4447100 0.2 10211611
18:00+15ююз1155100 0.0 102111
21:00+13ю2259100 0.0 102216
23 апреля, пт
пт2300:00+12ю2269100 0.6 102225
03:00+10зюз117498 0.6 102210
06:00+11ю1175100 0.4 102210
09:00+14ююз2264100 0.4 1022272
12:00+17ю144476 0.1 10211981
15:00+18ююз343880 0.1 10202135
18:00+17ю244863 0.0 1019195
21:00+12ю33596 0.0 101940
24 апреля, сб
сб2400:00+10зюз34725 0.0 101851
03:00+9юз34775 0.0 101757
06:00+8ююз35766 0.0 1017115
09:00+14ююз685345 0.0 1016821
12:00+17юз8104654 0.1 10141967
15:00+12з9974100 1.6 10151142
18:00+9зсз586920 2.1 10161111
21:00+7юз34790 2.1 101771